Showing default

GALAXY 36, 54742

Orbit data source: Space-Track

GALAXY 36, 54742 is a payload satellite owned by Intelsat SA (US) (US) in GEO that was launched on Tue, 13 Dec 2022 UTC via an ARIANE 5ECA+ launch vehicle from the French Guiana (FRGUI). Payload-class satellites include a variety of spacecraft equipped with specific instruments for various scientific and technological missions. These include communications satellites like Starlink; space stations such as the ISS; scientific satellites like the Hubble; Earth observation satellites from companies like Planet Labs, Umbra, and HawkEye 360; GPS; miniature CubeSats for education and research; and military/defense satellites.

Loading next visibility...
Identifier
54742, 2022-170B
Orbit
GEO
Country
Flag of USUS
Related business
Manufacturer
Maxar Space Sol
Mission
Operational Commercial Communications
Bus & Motor
SSL-1300, R-4D
Mass
3,150 kg wet, ~2,000 kg dry
Launch date (UTC)
2022-12-13 (3 years ago)
Launch vehicle
ARIANE 5ECA+
Launch site
French Guiana (FRGUI)
Object type
Payload
Rocket body
Debris
Shape & HBR
Box + 2 Pan, 6.0 m
Radar Cross Section
30.995 m², Large (>1 m²)

Expand to show TLE details & history
Last TLE update: 5 hours ago

TLE from 5 hours ago
0 GALAXY 36
1 54742U 22170B   26145.49485830 -.00000186  00000-0  00000+0 0  9998
2 54742   0.0085 237.3532 0002740 195.0643 259.8101  1.00271896 12545
Epoch: 2026-05-25T11:52Z
TLE epoch observation values (Epoch: 2026-05-25T11:52:35.757Z)
Latitude
0.01686°
Longitude
-89.03193°
Altitude
35,788.083 km
Speed
3.075 km/s
True Right ascension
22h 08m 47s
True Declination
0° 01' 01"
Sunlit
Object was in daylight at epoch
Visualization orbit readout
Latitude
Unknown
Longitude
Unknown
Altitude
Unknown
Speed
Unknown
Apparent Right ascension
Unknown
Apparent Declination
Unknown
Sunlit
N/A
Visualization observer readout
Local Sidereal Time
01:52:51
Azimuth
Unknown
Elevation
Unknown
Doppler factor
Unknown
Orbital elements
Apogee altitude
35,799.188 km
Perigee altitude
35,776.081 km
Semi-major axis
42,165.771 km
Eccentricity
0.00027
Inclination
0.0085°
RAAN
237.3532°
Arg. of periapsis
195.0643°
True anomaly
259.7792°
Mean anomaly
259.8101°
Eccentric anomaly
259.79465°
Mean motion
0.25067 °/min
Orbital period
1,436.15 mins
BSTAR
0
Loading maneuver chart data...
Computing Atmospheric mass density...
Loading historical data...
Loading historical data...
Loading historical data...
Loading historical data...
Loading historical data...
Loading historical data...
Loading historical data...
Other satellites on launch #170 in the year 2022 (2022-12-13 UTC)

Documentation

Showing up to 5 results
|